Stündliche Wetter Bolshie Negnovichi

Heute, 27 November, Freitag

Zeit Temperatur Niederschläge Wind Luftdruck Luftfeuchtigkeit
00:00 -1°C° 0 mm 3 m/S 744 mmHg 87%
01:00 -1°C° 0 mm 3 m/S 743 mmHg 87%
02:00 -1°C° 0 mm 2 m/S 743 mmHg 90%
03:00 -1°C° 0 mm 3 m/S 742 mmHg 89%
04:00 -1°C° 0 mm 3 m/S 742 mmHg 89%
05:00 -2°C° 0 mm 4 m/S 742 mmHg 89%
06:00 -1°C° 0.2 mm 4 m/S 741 mmHg 90%
07:00 -1°C° 0.2 mm 4 m/S 741 mmHg 92%
08:00 0°C° 0 mm 4 m/S 740 mmHg 92%
09:00 0°C° 0.3 mm 4 m/S 740 mmHg 93%
10:00 +1°C° 0.3 mm 4 m/S 740 mmHg 93%
11:00 +1°C° 0.3 mm 4 m/S 740 mmHg 94%
12:00 +1°C° 0.4 mm 4 m/S 740 mmHg 94%
13:00 +3°C° 0.4 mm 4 m/S 740 mmHg 94%
14:00 +3°C° 0.4 mm 4 m/S 740 mmHg 94%
15:00 +1°C° 0.2 mm 4 m/S 740 mmHg 91%
16:00 +1°C° 0.2 mm 3 m/S 741 mmHg 88%
17:00 +1°C° 0.2 mm 3 m/S 741 mmHg 86%
18:00 0°C° 0 mm 3 m/S 741 mmHg 87%
19:00 +1°C° 0 mm 2 m/S 741 mmHg 88%
20:00 +1°C° 0 mm 2 m/S 742 mmHg 90%
21:00 +1°C° 0.1 mm 2 m/S 742 mmHg 92%
22:00 +1°C° 0.1 mm 2 m/S 742 mmHg 94%
23:00 -1°C° 0.1 mm 2 m/S 743 mmHg 95%

Morgen, 28 November, Samstag

Zeit Temperatur Niederschläge Wind Luftdruck Luftfeuchtigkeit
00:00 -1°C° 0 mm 2 m/S 743 mmHg 95%
01:00 +1°C° 0 mm 1 m/S 743 mmHg 95%
02:00 0°C° 0 mm 1 m/S 744 mmHg 94%
03:00 0°C° 0 mm 1 m/S 744 mmHg 94%
04:00 0°C° 0 mm 1 m/S 744 mmHg 94%
05:00 0°C° 0 mm 1 m/S 744 mmHg 94%
06:00 0°C° 0 mm 1 m/S 744 mmHg 94%
07:00 0°C° 0 mm 1 m/S 745 mmHg 94%
08:00 0°C° 0 mm 1 m/S 745 mmHg 93%
09:00 0°C° 0 mm 1 m/S 745 mmHg 90%
10:00 +1°C° 0 mm 1 m/S 746 mmHg 87%
11:00 +1°C° 0 mm 1 m/S 746 mmHg 83%
12:00 +2°C° 0 mm 1 m/S 746 mmHg 83%
13:00 +2°C° 0 mm 1 m/S 746 mmHg 83%
14:00 +2°C° 0 mm 1 m/S 746 mmHg 82%
15:00 +2°C° 0 mm 1 m/S 747 mmHg 86%
16:00 +2°C° 0 mm 1 m/S 747 mmHg 91%
17:00 +1°C° 0 mm 2 m/S 747 mmHg 95%
18:00 +1°C° 0.1 mm 2 m/S 747 mmHg 95%
19:00 +1°C° 0.1 mm 2 m/S 748 mmHg 95%
20:00 +1°C° 0.1 mm 2 m/S 748 mmHg 95%
21:00 +1°C° 0 mm 2 m/S 748 mmHg 95%
22:00 +1°C° 0 mm 2 m/S 748 mmHg 94%
23:00 +1°C° 0 mm 2 m/S 748 mmHg 93%

übermorgen, 29 November, Sonntag

Zeit Temperatur Niederschläge Wind Luftdruck Luftfeuchtigkeit
00:00 0°C° 0 mm 3 m/S 749 mmHg 94%
01:00 0°C° 0 mm 3 m/S 749 mmHg 94%
02:00 0°C° 0 mm 3 m/S 749 mmHg 95%
03:00 -1°C° 0.1 mm 3 m/S 749 mmHg 95%
04:00 -1°C° 0.1 mm 3 m/S 749 mmHg 95%
05:00 -1°C° 0.1 mm 3 m/S 749 mmHg 95%
06:00 -1°C° 0.1 mm 3 m/S 749 mmHg 95%
07:00 -1°C° 0.1 mm 2 m/S 749 mmHg 94%
08:00 -2°C° 0.1 mm 2 m/S 749 mmHg 94%
09:00 -1°C° 0.1 mm 2 m/S 749 mmHg 93%
10:00 -1°C° 0.1 mm 2 m/S 749 mmHg 92%
11:00 -1°C° 0.1 mm 3 m/S 749 mmHg 91%
12:00 -1°C° 0 mm 3 m/S 748 mmHg 91%
13:00 -1°C° 0 mm 3 m/S 748 mmHg 90%
14:00 -1°C° 0 mm 3 m/S 748 mmHg 90%
15:00 -1°C° 0.2 mm 3 m/S 747 mmHg 92%
16:00 -1°C° 0.2 mm 3 m/S 747 mmHg 94%
17:00 -1°C° 0.2 mm 2 m/S 747 mmHg 97%
18:00 -1°C° 0.3 mm 2 m/S 747 mmHg 97%
19:00 -1°C° 0.3 mm 2 m/S 747 mmHg 97%
20:00 -1°C° 0.3 mm 2 m/S 747 mmHg 97%
21:00 -1°C° 0.2 mm 2 m/S 747 mmHg 97%
22:00 +1°C° 0.2 mm 1 m/S 747 mmHg 97%
23:00 +1°C° 0.2 mm 1 m/S 747 mmHg 97%

30 November, Montag

Zeit Temperatur Niederschläge Wind Luftdruck Luftfeuchtigkeit
00:00 +1°C° 0.1 mm 1 m/S 747 mmHg 97%
01:00 +1°C° 0.1 mm 1 m/S 748 mmHg 97%
02:00 0°C° 0.1 mm 1 m/S 748 mmHg 97%
03:00 0°C° 0.1 mm 1 m/S 748 mmHg 97%
04:00 0°C° 0.1 mm 1 m/S 748 mmHg 97%
05:00 -2°C° 0.1 mm 2 m/S 748 mmHg 97%
06:00 -2°C° 0.1 mm 2 m/S 749 mmHg 96%
07:00 -2°C° 0.1 mm 2 m/S 749 mmHg 96%
08:00 -2°C° 0.1 mm 2 m/S 750 mmHg 96%
09:00 -2°C° 0 mm 2 m/S 750 mmHg 94%
10:00 -2°C° 0 mm 2 m/S 750 mmHg 92%
11:00 -2°C° 0 mm 3 m/S 751 mmHg 89%
12:00 -1°C° 0 mm 3 m/S 751 mmHg 87%
13:00 -1°C° 0 mm 3 m/S 751 mmHg 85%
14:00 -1°C° 0 mm 3 m/S 751 mmHg 83%
15:00 -2°C° 0 mm 3 m/S 752 mmHg 85%
16:00 -2°C° 0 mm 2 m/S 752 mmHg 87%
17:00 -3°C° 0 mm 2 m/S 752 mmHg 89%
18:00 -3°C° 0 mm 2 m/S 753 mmHg 88%
19:00 -3°C° 0 mm 2 m/S 753 mmHg 87%
20:00 -3°C° 0 mm 2 m/S 753 mmHg 87%
21:00 -3°C° 0 mm 2 m/S 753 mmHg 87%
22:00 -3°C° 0 mm 2 m/S 753 mmHg 87%
23:00 -3°C° 0 mm 2 m/S 754 mmHg 86%

1 Dezember, Dienstag

Zeit Temperatur Niederschläge Wind Luftdruck Luftfeuchtigkeit
00:00 -3°C° 0 mm 2 m/S 754 mmHg 87%
01:00 -3°C° 0 mm 2 m/S 754 mmHg 88%
02:00 -3°C° 0 mm 2 m/S 754 mmHg 89%
03:00 -4°C° 0 mm 2 m/S 754 mmHg 90%
04:00 -4°C° 0 mm 2 m/S 754 mmHg 90%
05:00 -4°C° 0 mm 2 m/S 754 mmHg 90%
06:00 -4°C° 0 mm 2 m/S 754 mmHg 89%
07:00 -4°C° 0 mm 2 m/S 754 mmHg 89%
08:00 -4°C° 0 mm 2 m/S 754 mmHg 88%
09:00 -3°C° 0 mm 2 m/S 754 mmHg 84%
10:00 -3°C° 0 mm 2 m/S 754 mmHg 81%
11:00 -4°C° 0 mm 3 m/S 754 mmHg 77%
12:00 -2°C° 0 mm 3 m/S 754 mmHg 76%
13:00 -2°C° 0 mm 2 m/S 754 mmHg 75%
14:00 -2°C° 0 mm 2 m/S 754 mmHg 73%
15:00 -3°C° 0 mm 2 m/S 754 mmHg 76%
16:00 -3°C° 0 mm 2 m/S 754 mmHg 78%
17:00 -1°C° 0 mm 1 m/S 754 mmHg 80%
18:00 -2°C° 0 mm 1 m/S 754 mmHg 82%
19:00 -2°C° 0 mm 1 m/S 754 mmHg 85%
20:00 -2°C° 0 mm 1 m/S 754 mmHg 87%
21:00 -2°C° 0 mm 1 m/S 754 mmHg 88%
22:00 -3°C° 0 mm 1 m/S 754 mmHg 89%
23:00 -3°C° 0 mm 1 m/S 754 mmHg 91%

2 Dezember, Mittwoch

Zeit Temperatur Niederschläge Wind Luftdruck Luftfeuchtigkeit
00:00 -3°C° 0 mm 1 m/S 754 mmHg 91%
01:00 -4°C° 0 mm 2 m/S 754 mmHg 91%
02:00 -4°C° 0 mm 2 m/S 754 mmHg 92%
03:00 -4°C° 0.1 mm 2 m/S 754 mmHg 93%
04:00 -4°C° 0.1 mm 2 m/S 754 mmHg 94%
05:00 -3°C° 0.1 mm 2 m/S 753 mmHg 95%
06:00 -3°C° 0.1 mm 2 m/S 754 mmHg 96%
07:00 -3°C° 0.1 mm 2 m/S 754 mmHg 96%
08:00 -3°C° 0.1 mm 2 m/S 754 mmHg 96%
09:00 -2°C° 0.1 mm 2 m/S 754 mmHg 94%
10:00 -2°C° 0.1 mm 2 m/S 754 mmHg 92%
11:00 -2°C° 0.1 mm 3 m/S 754 mmHg 90%
12:00 -2°C° 0 mm 2 m/S 754 mmHg 90%
13:00 -2°C° 0 mm 2 m/S 754 mmHg 91%
14:00 -2°C° 0 mm 2 m/S 754 mmHg 91%
15:00 -2°C° 0.1 mm 2 m/S 754 mmHg 93%
16:00 -3°C° 0.1 mm 2 m/S 754 mmHg 95%
17:00 -3°C° 0.1 mm 2 m/S 754 mmHg 97%
18:00 -3°C° 0 mm 2 m/S 754 mmHg 97%
19:00 -3°C° 0 mm 2 m/S 754 mmHg 97%
20:00 -4°C° 0 mm 2 m/S 755 mmHg 97%
21:00 -4°C° 0 mm 2 m/S 755 mmHg 97%
22:00 -3°C° 0 mm 2 m/S 755 mmHg 97%
23:00 -3°C° 0 mm 2 m/S 755 mmHg 97%
Mehr zeigen

Wir brauchen deine Erlaubnis

Meteoprog und unser Service Anbieter werden persönliche Daten aufbewahren, so wie Cookies, Geräte Bezeichnung oder ähnliche Technologien von deinem Gerät und Prozess, so wie Persönliche Daten Inhalte und Werbungen, genauso wie social Media und den Verkehr zu analysieren.

  • Aufbewahrung und/oder Zugang zu deiner Geräte Informationen.

    Cookies, Geräte Bezeichnung oder andere Informationen, können aufbewahrt oder Zugang zu deinem Gerät erhalten, für den Grund, der oben angegeben wird.

  • Personalisierte Werbung und Inhalte, Messungen, Einblick in das Publikum und Produkt Entwicklung.

    Werbungen und Inhalte können personalisiert werden, basierend auf ein Profil. Mehr Daten können besser personalisierte Werbungen und Inhalte hinzufügen. Werbung und Inhalte können gezeigt und gemessen werden. Einblicke über das Publikum, welche die Werbung gesehen haben und den Inhalt, können abgeleitet werden. So wie Daten können genutzt werden, um es zu verbessern oder die Benutzer Erfahrung zu verbessern das System und die Software.

Wenn du “Ich stimme zu” klickst, erlaubst du uns, die Cookies zu benutzen die Geräte Bezeichnung, den Web oder ähnliche Technologien zu benutzen. Deine Settings, können in deinem Gerät bei deinem Browser geändert werden.

Für den bestimmten Zweck, berechtigten Interessen beruhen darauf, mehr als auf den Inhalt. Du kannst mehr darüber in unseren Privaten und Cookie Politik lesen.